This is the latest recevied weather packets stored in our database for station/object K1RFS. If no packets are shown the sender has not sent any weather packets the latest 10 day(s).
| Time | Temp. | Humidity | Pressure | Rain* | Wind** | Luminosity | Snow |
|---|---|---|---|---|---|---|---|
| 1778020606 | 13.33° C | 57% | 995.4 hPa | 0 mm | - | 425 W/m² | - |
| 1778020302 | 12.78° C | 57% | 995.4 hPa | 0 mm | - | 248 W/m² | - |
| 1778019998 | 12.22° C | 59% | 995.7 hPa | 0 mm | - | 213 W/m² | - |
| 1778019695 | 12.22° C | 59% | 995.6 hPa | 0 mm | - | 155 W/m² | - |
| 1778019387 | 12.22° C | 60% | 995.9 hPa | 0 mm | - | 124 W/m² | - |
| 1778019083 | 12.22° C | 57% | 995.8 hPa | 0 mm | - | 125 W/m² | - |
| 1778018781 | 12.78° C | 59% | 995.9 hPa | 0 mm | - | 114 W/m² | - |
| 1778018478 | 13.33° C | 57% | 995.9 hPa | 0 mm | - | 95 W/m² | - |
| 1778018176 | 13.33° C | 52% | 995.8 hPa | 0 mm | - | 76 W/m² | - |
| 1778017874 | 13.33° C | 47% | 995.9 hPa | 0 mm | - | 59 W/m² | - |
| 1778017571 | 13.33° C | 47% | 995.9 hPa | 0 mm | - | 66 W/m² | - |
| 1778017269 | 13.89° C | 47% | 995.9 hPa | 0 mm | - | 100 W/m² | - |
| 1778016966 | 13.89° C | 47% | 995.8 hPa | 0 mm | - | 127 W/m² | - |
| 1778016662 | 13.89° C | 48% | 996 hPa | 0 mm | - | 119 W/m² | - |
| 1778016358 | 13.89° C | 47% | 995.9 hPa | 0 mm | - | 112 W/m² | - |
| 1778016056 | 13.33° C | 48% | 995.7 hPa | 0 mm | - | 135 W/m² | - |
| 1778015752 | 13.89° C | 47% | 995.8 hPa | 0 mm | - | 121 W/m² | - |
| 1778015449 | 13.89° C | 48% | 995.7 hPa | 0 mm | - | 135 W/m² | - |
| 1778015146 | 13.89° C | 47% | 995.7 hPa | 0 mm | - | 182 W/m² | - |
| 1778014843 | 13.89° C | 47% | 995.8 hPa | 0 mm | - | 219 W/m² | - |
| 1778014541 | 13.89° C | 48% | 995.8 hPa | 0 mm | - | 292 W/m² | - |
| 1778014238 | 13.33° C | 49% | 995.8 hPa | 0 mm | - | 236 W/m² | - |
| 1778013935 | 13.33° C | 49% | 995.7 hPa | 0 mm | - | 222 W/m² | - |
| 1778013632 | 12.78° C | 50% | 995.6 hPa | 0 mm | - | 234 W/m² | - |
| 1778013329 | 12.78° C | 50% | 995.7 hPa | 0 mm | - | 189 W/m² | - |
* Rain latest hour (hover to see other rain measurements)
** Current wind speed in m/s (hover to see current wind gust speed)